Location: Piotrkow Trybunalski
(51.4000°N, 19.6830°E)
Time: 15:02:56
(UTC+01:00)

Vanguard 2 - Pass Details

Date: 15 February 2023
Orbit: 553 x 2927 km, 32.9° (Epoch: 24 March)

Event Time Altitude Azimuth Distance (km) Brightness Sun altitude
Rises 00:57:26 0° 262° (W) 5,816 - -49.4°
Reaches altitude 10° 01:04:33 10° 239° (WSW) 5,275 - -49.0°
Maximum altitude 01:10:11 13° 218° (SW) 5,292 - -48.6°
Drops below altitude 10° 01:16:12 10° 197° (SSW) 5,700 - -48.1°
Sets 01:24:55 0° 174° (S) 6,753 - -47.4°
